Wind_Speed
18 18 17 15 12 9 5 2 1 2 4 5 7 8 8 8 6 5 4 3 3 3 3 3 3 3 3 3 2 2 2 2 2 3 3 4 4 5 5 5 5 5
21 21 22 21 16 12 8 5 4 3 3 4 6 8 8 8 7 6 6 5 5 4 4 4 3 3 4 4 3 3 3 3 3 3 3 3 2 2 3 3 4 4
26 25 25 25 19 15 11 8 6 5 3 2 4 5 6 6 7 6 6 6 6 5 5 5 5 5 5 6 6 6 6 6 6 6 5 5 4 4 3 2 2 1
32 29 28 28 22 17 14 11 9 6 5 5 3 3 4 4 5 5 5 5 6 6 6 6 6 6 6 6 6 6 6 6 6 7 7 6 6 6 6 5 5 4
35 31 29 31 24 18 17 13 11 9 8 8 6 5 4 3 3 2 2 2 3 4 5 6 6 7 7 7 7 7 7 6 6 6 6 6 6 6 6 5 5 5
34 31 29 30 26 20 20 16 14 13 11 10 9 8 7 5 4 3 2 2 1 2 3 4 5 5 6 6 7 7 7 6 6 5 5 5 5 5 5 5 5 5
30 31 29 29 27 23 22 19 16 16 15 14 13 11 9 8 7 6 6 5 4 4 4 4 4 5 6 7 7 7 8 8 8 7 7 6 5 5 4 4 4 4
26 30 29 28 28 26 24 22 18 18 19 18 16 13 12 10 10 9 9 8 8 7 6 6 6 7 8 9 9 9 10 10 11 11 10 10 9 8 7 7 7 6
23 29 31 30 29 27 26 25 23 22 23 22 19 16 14 13 12 12 12 12 11 10 9 8 8 9 10 10 11 11 12 12 13 13 13 13 12 11 10 9 9 9
21 26 30 31 30 29 29 29 28 26 25 25 24 21 19 17 16 16 16 15 13 12 12 12 11 12 12 12 12 13 13 13 14 15 15 15 15 14 13 12 12 11
21 23 27 30 31 32 33 32 30 29 28 27 26 24 22 22 22 21 18 14 12 14 16 16 16 16 15 15 15 15 16 15 15 16 17 17 17 16 15 15 14 14
19 21 23 27 32 33 33 31 28 29 29 26 25 25 24 23 23 20 16 13 14 17 19 18 19 19 18 17 18 18 18 18 17 17 18 19 19 18 17 17 16 15
17 19 21 24 29 32 32 30 27 25 25 24 24 24 23 22 21 19 17 16 16 18 18 17 18 20 19 17 18 19 20 20 19 18 19 20 21 20 19 19 18 17
14 17 20 21 23 26 27 26 24 22 23 24 23 22 21 22 21 19 18 18 17 16 15 14 16 19 19 18 19 21 22 22 22 21 20 20 22 22 22 21 21 20
13 16 19 19 18 20 20 20 20 20 22 22 20 19 21 24 22 18 16 16 15 14 14 13 15 16 17 17 19 20 21 23 24 24 23 22 23 24 23 22 22 23
15 16 17 17 16 17 17 18 18 18 18 17 16 17 19 21 18 15 14 15 14 13 12 13 14 14 15 16 16 17 18 19 21 22 22 23 25 26 25 23 21 22
16 17 17 16 15 14 15 15 15 15 15 15 15 15 15 16 15 14 15 15 15 15 14 15 15 15 16 17 18 19 20 20 20 20 21 22 24 26 27 25 23 22
14 15 16 15 14 14 14 14 14 14 15 14 14 13 13 15 17 18 18 19 19 19 19 19 19 19 20 21 22 23 24 24 23 23 23 24 25 25 26 26 26 26
15 15 15 14 14 14 14 14 14 14 15 14 14 14 15 16 17 18 20 21 21 21 21 21 21 21 22 23 24 25 26 27 27 27 27 27 27 27 26 26 27 28
17 17 16 16 15 15 15 15 15 15 16 16 17 18 19 19 20 21 22 22 22 22 21 21 21 21 22 23 24 25 26 27 28 28 28 28 28 28 28 28 29 29
19 19 19 19 19 18 18 18 18 18 18 19 20 21 22 23 23 23 23 23 23 22 21 20 20 20 21 22 23 24 25 26 26 27 27 27 27 27 27 28 29 29
22 22 22 22 21 21 20 20 20 20 20 21 22 22 23 24 24 25 24 24 23 23 22 21 21 21 21 22 23 24 25 25 26 26 26 27 27 26 27 27 28 28
24 24 24 24 23 22 22 21 21 21 21 22 22 23 23 24 24 25 25 25 24 24 23 22 22 22 22 22 23 24 25 25 25 26 26 26 27 27 27 27 28 29
25 26 26 26 25 23 22 22 22 22 22 22 23 23 23 23 23 24 24 25 24 24 24 24 23 23 23 23 23 24 24 24 24 24 24 24 24 25 25 26 27 27
26 27 27 26 25 24 24 24 24 25 25 25 24 24 24 24 24 24 24 24 24 24 24 24 25 25 26 26 26 26 26 26 26 26 25 25 24 24 25 25 25 26
26 26 26 26 26 26 27 27 27 28 28 27 27 27 26 26 26 25 24 24 24 24 25 25 26 27 28 29 30 30 30 30 30 30 29 29 29 29 29 29 29 29
Wind_Direction
236 242 247 250 253 249 231 196 136 76 69 73 76 73 73 73 74 85 95 111 126 139 152 157 167 173 181 188 187 189 177 166 168 179 190 197 208 217 221 222 220 221
227 230 241 250 250 238 220 196 174 137 99 87 86 82 78 75 71 71 74 79 91 102 112 119 123 121 119 115 109 106 103 100 101 101 111 131 158 187 205 223 230 235
226 225 240 252 244 226 215 198 185 174 151 138 108 96 90 85 77 69 66 63 62 69 76 83 90 89 89 90 87 87 86 84 84 80 77 80 82 86 90 91 98 108
230 228 240 252 242 221 217 202 192 195 186 188 178 141 124 106 96 82 70 61 51 48 50 49 49 49 48 52 56 61 66 67 68 66 62 61 60 60 62 63 67 69
234 231 238 253 250 228 218 205 193 201 205 205 211 204 187 167 152 131 94 64 48 40 36 30 25 27 24 21 21 22 26 32 38 42 39 35 34 35 36 35 36 39
235 231 234 249 253 232 217 212 200 197 209 217 218 220 218 216 218 208 217 240 283 326 344 356 354 355 354 351 350 347 349 352 354 358 360 360 0 0 3 5 5 3
230 229 232 242 250 236 218 221 215 199 208 221 218 222 231 234 241 241 241 245 246 257 277 299 308 308 307 309 310 310 312 313 312 312 313 314 315 315 317 320 320 321
224 224 229 236 246 238 220 226 228 206 206 219 220 226 236 237 245 251 249 249 245 245 251 264 277 281 284 288 288 288 291 294 296 297 297 297 295 292 293 294 292 287
224 223 227 231 240 240 226 226 231 216 208 215 217 221 230 237 246 251 250 250 249 250 251 255 263 268 272 276 278 279 282 286 290 293 293 292 290 289 289 288 287 284
230 229 233 235 237 238 231 228 232 226 217 215 215 215 218 224 232 240 246 252 255 257 259 261 264 262 261 264 267 270 274 278 284 288 289 289 287 286 284 282 282 284
235 235 238 238 234 234 235 233 234 234 226 218 216 217 220 224 228 230 233 243 259 268 268 267 264 258 252 252 255 259 263 267 272 277 280 281 280 279 279 278 278 279
242 244 243 238 232 234 241 245 248 246 238 229 227 228 232 239 246 248 246 248 259 269 270 268 265 260 253 249 251 254 255 258 262 267 271 271 270 269 270 272 273 273
248 248 247 241 233 234 244 252 255 252 243 240 243 241 241 250 261 269 271 264 262 266 268 266 264 261 258 257 259 257 254 255 260 264 266 266 263 262 262 263 264 264
242 236 234 237 236 236 242 247 248 245 241 243 246 246 250 256 259 262 266 264 263 265 267 265 263 263 264 263 262 261 256 254 256 261 264 263 260 257 256 255 254 254
228 225 226 230 231 232 236 240 242 244 247 251 252 253 259 259 253 249 252 255 256 259 263 264 263 264 265 263 262 263 261 256 255 259 263 263 258 254 251 251 250 250
216 219 223 225 221 221 227 235 238 241 246 253 254 252 256 256 250 242 241 244 247 251 257 261 263 264 266 267 267 266 266 263 261 262 263 262 258 253 251 250 251 253
216 214 217 219 217 215 218 223 228 231 236 241 243 245 253 261 263 259 256 256 257 258 258 259 261 263 265 267 268 267 267 266 264 263 263 261 260 259 258 256 257 261
220 217 217 217 217 216 215 216 220 226 231 237 242 248 253 258 262 262 261 262 262 262 261 259 259 260 261 262 263 265 266 266 265 266 264 263 263 265 266 264 261 264
219 219 221 221 222 224 224 223 225 229 234 239 243 245 247 248 250 252 254 257 258 258 259 260 261 262 262 263 263 264 265 266 267 268 268 268 268 269 270 269 266 266
221 221 223 224 225 228 229 229 230 231 233 237 240 242 245 246 248 249 252 255 257 259 261 263 265 265 266 267 267 267 267 268 268 270 271 271 272 272 271 270 269 269
228 227 226 226 226 228 230 232 233 235 237 239 241 243 245 247 249 250 252 254 256 259 262 265 267 267 267 268 269 269 270 269 270 271 271 271 271 270 269 269 269 268
236 235 234 233 232 232 234 237 239 241 243 244 245 247 248 249 251 252 254 256 257 259 261 263 266 267 268 269 269 270 270 270 270 270 270 271 271 270 270 269 269 269
242 241 241 240 239 238 238 240 242 244 245 247 248 249 250 251 253 254 255 256 258 260 261 263 266 268 269 269 269 269 269 269 270 270 270 270 271 271 271 270 269 270
246 246 245 243 242 241 241 241 242 243 244 246 248 250 251 252 254 255 257 258 260 263 264 266 267 268 267 267 266 266 266 267 267 268 269 269 270 271 272 272 272 272
246 246 246 245 243 242 242 242 243 244 245 246 247 248 250 252 254 256 259 261 264 265 267 268 269 270 269 268 267 266 266 266 267 267 268 269 271 273 276 278 278 277
250 245 246 247 246 245 244 244 244 245 246 247 247 248 249 251 254 256 259 263 265 267 268 269 270 271 271 271 270 270 270 270 271 271 272 273 274 276 277 279 280 280
Height
3127 3127 3128 3129 3130 3130 3128 3127 3127 3126 3125 3125 3124 3124 3124 3124 3124 3124 3124 3124 3123 3123 3122 3122 3122 3122 3123 3124 3124 3124 3124 3125 3125 3125 3125 3125 3125 3125 3125 3125 3125 3125
3125 3125 3126 3127 3128 3128 3127 3127 3126 3126 3126 3125 3125 3124 3124 3124 3125 3125 3125 3125 3125 3124 3123 3123 3123 3123 3124 3124 3125 3125 3125 3125 3125 3125 3125 3125 3125 3125 3125 3125 3125 3125
3122 3122 3124 3126 3127 3127 3126 3126 3126 3125 3125 3125 3125 3125 3124 3125 3125 3126 3126 3126 3126 3126 3125 3125 3125 3125 3125 3125 3126 3126 3126 3126 3126 3126 3126 3126 3126 3126 3126 3126 3126 3126
3118 3120 3123 3123 3124 3125 3124 3125 3125 3125 3125 3125 3125 3125 3125 3125 3125 3126 3127 3127 3127 3127 3127 3126 3127 3127 3127 3127 3127 3127 3128 3128 3128 3128 3128 3128 3127 3127 3127 3127 3126 3126
3116 3119 3121 3121 3123 3124 3123 3124 3124 3124 3125 3125 3125 3125 3125 3125 3126 3126 3127 3128 3128 3128 3127 3128 3128 3128 3129 3129 3129 3129 3129 3129 3129 3129 3129 3129 3129 3129 3128 3128 3128 3127
3114 3117 3119 3120 3121 3122 3123 3123 3122 3123 3124 3125 3125 3125 3125 3125 3126 3126 3127 3127 3128 3128 3128 3128 3128 3129 3129 3130 3130 3130 3130 3130 3130 3130 3131 3130 3130 3130 3130 3129 3129 3129
3112 3115 3117 3119 3120 3120 3122 3122 3121 3121 3123 3123 3124 3124 3125 3126 3126 3127 3127 3127 3127 3127 3127 3128 3128 3129 3129 3129 3129 3130 3130 3130 3130 3130 3131 3131 3131 3130 3130 3130 3130 3129
3110 3113 3115 3117 3118 3118 3120 3121 3119 3120 3121 3122 3123 3124 3125 3126 3126 3127 3127 3126 3126 3126 3126 3127 3127 3128 3128 3128 3128 3129 3129 3129 3129 3129 3129 3130 3130 3130 3130 3130 3129 3129
3109 3111 3113 3115 3115 3116 3119 3119 3119 3118 3119 3120 3122 3123 3124 3125 3125 3126 3126 3126 3125 3125 3126 3126 3126 3126 3127 3127 3127 3127 3128 3128 3128 3128 3128 3128 3128 3128 3129 3129 3128 3128
3108 3110 3111 3113 3113 3115 3116 3117 3117 3117 3118 3119 3120 3121 3122 3122 3122 3123 3124 3124 3124 3124 3125 3125 3125 3125 3125 3125 3126 3126 3126 3126 3126 3127 3127 3127 3126 3126 3127 3127 3127 3127
3107 3108 3108 3110 3111 3112 3112 3114 3116 3116 3116 3117 3119 3119 3119 3118 3118 3119 3120 3121 3122 3123 3123 3124 3124 3124 3123 3123 3123 3124 3124 3124 3125 3125 3125 3125 3125 3125 3125 3125 3125 3125
3105 3106 3106 3107 3108 3110 3111 3113 3114 3115 3114 3115 3116 3116 3117 3117 3118 3118 3119 3119 3119 3120 3121 3121 3121 3121 3121 3121 3121 3121 3122 3122 3122 3123 3123 3123 3123 3123 3123 3123 3123 3123
3104 3104 3104 3105 3106 3109 3110 3111 3112 3113 3113 3113 3114 3114 3115 3117 3118 3118 3117 3115 3115 3117 3118 3118 3118 3118 3119 3119 3119 3119 3120 3120 3120 3120 3121 3121 3121 3121 3121 3121 3121 3121
3102 3102 3102 3103 3105 3107 3108 3109 3110 3111 3110 3110 3110 3111 3113 3114 3116 3116 3115 3113 3113 3114 3115 3116 3116 3116 3116 3117 3117 3117 3117 3118 3118 3118 3118 3118 3119 3119 3119 3119 3119 3119
3100 3100 3101 3102 3104 3105 3106 3107 3108 3108 3108 3108 3108 3109 3110 3112 3113 3115 3114 3113 3113 3113 3114 3114 3114 3115 3115 3115 3115 3114 3114 3114 3115 3115 3115 3115 3116 3116 3116 3116 3116 3116
3099 3099 3100 3101 3102 3104 3104 3104 3105 3105 3106 3106 3107 3108 3108 3109 3111 3113 3113 3112 3112 3112 3112 3112 3112 3113 3113 3113 3112 3112 3112 3112 3112 3112 3112 3112 3113 3113 3113 3113 3113 3113
3097 3098 3098 3099 3100 3101 3101 3102 3102 3103 3104 3104 3105 3106 3106 3106 3107 3109 3110 3109 3110 3110 3110 3110 3110 3111 3111 3110 3110 3110 3109 3109 3109 3109 3110 3110 3110 3110 3110 3110 3110 3110
3094 3095 3095 3096 3097 3098 3099 3100 3100 3101 3102 3102 3102 3103 3103 3104 3105 3106 3106 3106 3106 3107 3107 3108 3108 3108 3108 3108 3107 3107 3107 3107 3107 3107 3107 3107 3107 3108 3108 3107 3107 3107
3091 3092 3092 3093 3094 3095 3096 3097 3098 3099 3099 3100 3100 3101 3101 3102 3103 3103 3104 3104 3104 3104 3104 3105 3105 3105 3105 3104 3104 3104 3103 3103 3104 3104 3104 3104 3104 3104 3104 3104 3104 3104
3090 3091 3091 3092 3093 3093 3094 3095 3096 3096 3097 3098 3098 3099 3099 3100 3100 3100 3101 3101 3101 3101 3101 3102 3102 3102 3102 3101 3101 3100 3100 3100 3100 3100 3100 3101 3100 3100 3101 3101 3101 3100
3088 3089 3090 3091 3091 3092 3092 3092 3093 3094 3094 3095 3095 3096 3096 3096 3097 3097 3097 3098 3098 3098 3098 3098 3098 3098 3098 3098 3097 3097 3097 3096 3096 3097 3097 3097 3097 3097 3097 3097 3097 3097
3086 3086 3087 3088 3088 3089 3089 3090 3090 3091 3091 3092 3092 3092 3093 3093 3093 3094 3094 3094 3094 3094 3095 3095 3095 3094 3094 3094 3094 3094 3093 3093 3093 3093 3093 3093 3093 3093 3093 3093 3093 3093
3082 3083 3083 3084 3085 3085 3086 3086 3087 3087 3087 3088 3088 3089 3089 3089 3090 3090 3090 3091 3091 3091 3091 3091 3091 3091 3091 3091 3091 3090 3090 3090 3090 3090 3090 3090 3090 3090 3090 3090 3090 3089
3078 3079 3079 3080 3081 3082 3082 3083 3083 3083 3083 3084 3084 3085 3085 3086 3086 3086 3087 3087 3087 3088 3088 3088 3088 3088 3088 3088 3087 3087 3087 3087 3087 3087 3087 3087 3087 3086 3086 3086 3086 3085
3074 3075 3076 3077 3078 3078 3079 3079 3079 3079 3080 3081 3081 3082 3082 3082 3082 3082 3083 3084 3084 3084 3084 3085 3085 3084 3084 3084 3084 3084 3084 3083 3083 3083 3083 3084 3083 3083 3083 3082 3082 3082
3070 3071 3072 3074 3074 3075 3075 3075 3076 3076 3077 3077 3078 3078 3078 3078 3078 3079 3080 3080 3081 3081 3081 3081 3081 3081 3081 3080 3080 3080 3080 3080 3080 3080 3080 3080 3080 3079 3079 3079 3078 3077